This is the latest recevied weather packets stored in our database for station/object E27IHO-13. If no packets are shown the sender has not sent any weather packets the latest 10 day(s).
| Time | Temp. | Humidity | Pressure | Rain* | Wind** | Luminosity | Snow |
|---|---|---|---|---|---|---|---|
| 1777202644 | 31.67° C | 64% | 1008 hPa | - | - | 0 W/m² | - |
| 1777198441 | 33.33° C | 56% | 1007 hPa | - | - | 0 W/m² | - |
| 1777198119 | 33.89° C | 57% | 1007 hPa | - | - | 0 W/m² | - |
| 1777197797 | 33.33° C | 57% | 1007 hPa | - | - | 0 W/m² | - |
| 1777197474 | 33.33° C | 57% | 1007 hPa | - | - | 0 W/m² | - |
| 1777197153 | 33.33° C | 59% | 1007 hPa | - | - | 0 W/m² | - |
| 1777196831 | 33.89° C | 58% | 1007 hPa | - | - | 0 W/m² | - |
| 1777196509 | 33.89° C | 56% | 1007 hPa | - | - | 0 W/m² | - |
| 1777196187 | 33.89° C | 56% | 1007 hPa | - | - | 0 W/m² | - |
| 1777195865 | 34.44° C | 55% | 1007 hPa | - | - | 0 W/m² | - |
| 1777195543 | 34.44° C | 56% | 1007 hPa | - | - | 0 W/m² | - |
| 1777195220 | 33.89° C | 56% | 1007 hPa | - | - | 0 W/m² | - |
| 1777194899 | 33.89° C | 59% | 1007 hPa | - | - | 0 W/m² | - |
| 1777194576 | 33.33° C | 57% | 1008 hPa | - | - | 0 W/m² | - |
| 1777185277 | 32.78° C | 66% | 1009 hPa | - | - | 0 W/m² | - |
| 1777184955 | 32.78° C | 67% | 1009 hPa | - | - | 0 W/m² | - |
| 1777184633 | 32.78° C | 71% | 1010 hPa | - | - | 0 W/m² | - |
| 1777184311 | 32.22° C | 69% | 1010 hPa | - | - | 0 W/m² | - |
| 1777183991 | 32.22° C | 76% | 1010 hPa | - | - | 0 W/m² | - |
| 1777183667 | 31.11° C | 77% | 1010 hPa | - | - | 0 W/m² | - |
| 1777183345 | 31.67° C | 75% | 1010 hPa | - | - | 0 W/m² | - |
| 1777183023 | 31.11° C | 79% | 1010 hPa | - | - | 0 W/m² | - |
| 1777182701 | 30.56° C | 81% | 1010 hPa | - | - | 0 W/m² | - |
| 1777182379 | 30° C | 79% | 1011 hPa | - | - | 0 W/m² | - |
| 1777182057 | 29.44° C | 82% | 1011 hPa | - | - | 0 W/m² | - |
* Rain since midnight (hover to see other rain measurements)
** Current wind speed in m/s (hover to see current wind gust speed)